Karmel — 9HA2896 — position and weather

sailwx.info

Track history (hours):
 
Tides and Currents Weather Stations Pressure Air Temp Water Temp Dewpoint Dewpoint Depression Visibility Wind Speed Wind Dir Waves Ship Positions

Karmel

Last reported at 2014-Jul-31 20:19 UTC. Time now 2014-Jul-31 23:50 UTC.
Position N 35°51' W 008°43'.

Length 90 m; draft 5.5 m.

Type: Cargo ship. MMSI: 256632000.

Date/timePositionNaut miles runAvg speedWind from/ knotsBaromVisibWave heightAir tempDewpointWater temp
2014-Jul-31 20:19N 35°51' W 008°43'911.3
2014-Jul-31 19:33N 35°59' W 008°47'1110.7
2014-Jul-31 18:32N 36°09' W 008°53'1410.8
2014-Jul-31 17:15N 36°22' W 008°60'810.9
2014-Jul-31 16:32N 36°29' W 009°03'1010.8
2014-Jul-31 15:33N 36°33' W 009°16'1110.6
2014-Jul-31 14:33N 36°40' W 009°25'1111.0
2014-Jul-31 13:33N 36°48' W 009°34'1210.9
2014-Jul-31 12:27N 36°60' W 009°38'1011.1
2014-Jul-31 11:33N 37°09' W 009°41'1211.3
2014-Jul-31 10:27N 37°22' W 009°44'1311.4
2014-Jul-31 09:18N 37°34' W 009°48'911.1
2014-Jul-31 08:31N 37°43' W 009°50'1010.5
2014-Jul-31 07:33N 37°53' W 009°53'1110.6
2014-Jul-31 06:33N 38°03' W 009°56'1111.2
2014-Jul-31 05:33N 38°14' W 009°59'1110.6
2014-Jul-31 04:33N 38°24' W 010°02'2210.6
2014-Jul-31 02:28N 38°46' W 010°07'1010.4
2014-Jul-31 01:31N 38°56' W 010°07'6810.8
2014-Jul-30 19:13N 40°04' W 010°07'710.4
2014-Jul-30 18:31N 40°11' W 010°07'  
2014-Jul-27 16:20N 50°21' W 000°56'3712.6
2014-Jul-27 13:24N 50°30' E 000°00'1011.4
2014-Jul-27 12:33N 50°33' E 000°15'1210.6
2014-Jul-27 11:23N 50°37' E 000°34'810.0
2014-Jul-27 10:33N 50°42' E 000°44'2711.0
2014-Jul-27 08:04N 50°59' E 001°17'713.6
2014-Jul-27 07:33N 51°03' E 001°26'1413.8
2014-Jul-27 06:33N 51°12' E 001°43'1312.6
2014-Jul-27 05:33N 51°23' E 001°52'1010.5
2014-Jul-27 04:33N 51°33' E 001°59'10 9.5
2014-Jul-27 03:33N 51°42' E 002°05'9 8.6
2014-Jul-27 02:33N 51°50' E 002°10'9 8.6
2014-Jul-27 01:33N 51°58' E 002°11'10 9.7
2014-Jul-27 00:33N 52°08' E 002°08'1110.5
2014-Jul-26 23:33N 52°18' E 002°06'1211.5
2014-Jul-26 22:29N 52°30' E 002°03'1312.1
2014-Jul-26 21:24N 52°43' E 001°59'1011.8
2014-Jul-26 20:33N 52°52' E 001°51'1312.9
2014-Jul-26 19:33N 53°02' E 001°38'2512.3
2014-Jul-26 17:29N 53°23' E 001°13'1112.3
2014-Jul-26 16:34N 53°33' E 001°03'1212.0
2014-Jul-26 15:33N 53°42' E 000°50'1211.9
2014-Jul-26 14:33N 53°52' E 000°39'1111.3
2014-Jul-26 13:33N 54°01' E 000°28'1110.7
2014-Jul-26 12:33N 54°10' E 000°18'1010.1
2014-Jul-26 11:33N 54°18' E 000°08'10 9.8
2014-Jul-26 10:33N 54°26' W 000°01'10 9.6
2014-Jul-26 09:33N 54°35' W 000°11'10 9.7
2014-Jul-26 08:33N 54°43' W 000°20'1010.1
2014-Jul-26 07:33N 54°51' W 000°30'1110.9
2014-Jul-26 06:33N 54°60' W 000°40'1211.7
2014-Jul-26 05:32N 55°10' W 000°51'1111.3
2014-Jul-26 04:33N 55°19' W 001°03'1111.4
2014-Jul-26 03:33N 55°28' W 001°15'1211.9
2014-Jul-26 02:33N 55°37' W 001°28'5710.4
2014-Jul-25 21:04N 56°04' W 002°59'6 9.8
2014-Jul-25 20:28N 56°00' W 003°08'2 1.5
2014-Jul-25 19:07N 55°59' W 003°10'0 0.1
2014-Jul-25 18:22N 55°59' W 003°10'0 0.0
2014-Jul-25 17:28N 55°59' W 003°09'0 0.0
2014-Jul-25 16:25N 55°59' W 003°10'0 0.0
2014-Jul-25 15:28N 55°59' W 003°10'1 0.0
2014-Jul-24 05:33N 55°59' W 003°11'5 4.0
2014-Jul-24 04:24N 56°02' W 003°04'26 5.3
2014-Jul-23 23:32N 55°60' W 002°18'8 7.6
2014-Jul-23 22:32N 55°56' W 002°06'8 7.5
2014-Jul-23 21:32N 55°51' W 001°56'8 8.0
2014-Jul-23 20:32N 55°46' W 001°45'8 8.4
2014-Jul-23 19:33N 55°40' W 001°34'9 8.6
2014-Jul-23 18:32N 55°32' W 001°28'8 8.7
2014-Jul-23 17:33N 55°25' W 001°21'1211.6
2014-Jul-23 16:32N 55°16' W 001°07'1111.2
2014-Jul-23 15:32N 55°08' W 000°53'1111.2
2014-Jul-23 14:33N 54°60' W 000°41'1111.1
2014-Jul-23 13:33N 54°51' W 000°28'1111.0
2014-Jul-23 12:33N 54°43' W 000°15'1110.8
2014-Jul-23 11:33N 54°35' W 000°03'1111.2
2014-Jul-23 10:33N 54°27' E 000°10'1111.5
2014-Jul-23 09:33N 54°18' E 000°23'1211.8
2014-Jul-23 08:33N 54°09' E 000°36'1211.6
2014-Jul-23 07:33N 54°02' E 000°51'1211.6
2014-Jul-23 06:33N 53°56' E 001°08'1111.3
2014-Jul-23 05:33N 53°47' E 001°21'1110.6
2014-Jul-23 04:33N 53°39' E 001°33'10 9.9
2014-Jul-23 03:33N 53°32' E 001°44'1010.1
2014-Jul-23 02:33N 53°25' E 001°55'1110.7
2014-Jul-23 01:33N 53°16' E 002°07'1211.7
2014-Jul-23 00:33N 53°08' E 002°20'1211.6
2014-Jul-22 23:33N 52°57' E 002°25'1212.1
2014-Jul-22 22:33N 52°44' E 002°28'1211.7
2014-Jul-22 21:33N 52°33' E 002°30'1110.9
2014-Jul-22 20:33N 52°22' E 002°32'1010.2
2014-Jul-22 19:33N 52°12' E 002°34'14 9.8
2014-Jul-22 18:06N 51°59' E 002°42'910.5
2014-Jul-22 17:16N 51°54' E 002°54'710.1
2014-Jul-22 16:33N 51°49' E 003°02'1010.5
2014-Jul-22 15:33N 51°42' E 003°15'1110.5
2014-Jul-22 14:33N 51°33' E 003°25'1110.2
2014-Jul-22 13:31N 51°25' E 003°35'0 0.0
2014-Jul-22 12:31N 51°25' E 003°35'0 0.1
2014-Jul-22 11:31N 51°25' E 003°36'0 0.1
2014-Jul-22 10:31N 51°25' E 003°36'0 0.0
2014-Jul-22 09:28N 51°25' E 003°36'0 0.0
2014-Jul-22 08:31N 51°25' E 003°36'0 0.0
2014-Jul-22 07:31N 51°25' E 003°36'0 0.0
2014-Jul-22 06:31N 51°25' E 003°36'0 0.0
2014-Jul-22 05:31N 51°25' E 003°36'0 0.0
2014-Jul-22 04:31N 51°25' E 003°36'0 0.1
2014-Jul-22 03:31N 51°25' E 003°35'0 0.0
2014-Jul-22 02:31N 51°25' E 003°35'1 1.5
2014-Jul-22 01:34N 51°25' E 003°38'9 8.8
2014-Jul-22 00:34N 51°20' E 003°49'4 4.1
2014-Jul-21 23:34N 51°16' E 003°50'2 1.8
2014-Jul-21 22:33N 51°14' E 003°48'0 0.0
2014-Jul-21 21:32N 51°14' E 003°48'0 0.0
2014-Jul-21 20:34N 51°14' E 003°48'  
Track history (hours):
 
Tides and Currents Weather Stations Pressure Air Temp Water Temp Dewpoint Dewpoint Depression Visibility Wind Speed Wind Dir Waves Ship Positions

Karmel

Last reported at 2014-Jul-31 20:19 UTC. Time now 2014-Jul-31 23:50 UTC.
Position N 35°51' W 008°43'.

Length 90 m; draft 5.5 m.

Type: Cargo ship. MMSI: 256632000.

Date/timePositionNaut miles runAvg speedWind from/ knotsBaromVisibWave heightAir tempDewpointWater temp
2014-Jul-31 20:19N 35°51' W 008°43'911.3
2014-Jul-31 19:33N 35°59' W 008°47'1110.7
2014-Jul-31 18:32N 36°09' W 008°53'1410.8
2014-Jul-31 17:15N 36°22' W 008°60'810.9
2014-Jul-31 16:32N 36°29' W 009°03'1010.8
2014-Jul-31 15:33N 36°33' W 009°16'1110.6
2014-Jul-31 14:33N 36°40' W 009°25'1111.0
2014-Jul-31 13:33N 36°48' W 009°34'1210.9
2014-Jul-31 12:27N 36°60' W 009°38'1011.1
2014-Jul-31 11:33N 37°09' W 009°41'1211.3
2014-Jul-31 10:27N 37°22' W 009°44'1311.4
2014-Jul-31 09:18N 37°34' W 009°48'911.1
2014-Jul-31 08:31N 37°43' W 009°50'1010.5
2014-Jul-31 07:33N 37°53' W 009°53'1110.6
2014-Jul-31 06:33N 38°03' W 009°56'1111.2
2014-Jul-31 05:33N 38°14' W 009°59'1110.6
2014-Jul-31 04:33N 38°24' W 010°02'2210.6
2014-Jul-31 02:28N 38°46' W 010°07'1010.4
2014-Jul-31 01:31N 38°56' W 010°07'6810.8
2014-Jul-30 19:13N 40°04' W 010°07'710.4
2014-Jul-30 18:31N 40°11' W 010°07'  
2014-Jul-27 16:20N 50°21' W 000°56'3712.6
2014-Jul-27 13:24N 50°30' E 000°00'1011.4
2014-Jul-27 12:33N 50°33' E 000°15'1210.6
2014-Jul-27 11:23N 50°37' E 000°34'810.0
2014-Jul-27 10:33N 50°42' E 000°44'2711.0
2014-Jul-27 08:04N 50°59' E 001°17'713.6
2014-Jul-27 07:33N 51°03' E 001°26'1413.8
2014-Jul-27 06:33N 51°12' E 001°43'1312.6
2014-Jul-27 05:33N 51°23' E 001°52'1010.5
2014-Jul-27 04:33N 51°33' E 001°59'10 9.5
2014-Jul-27 03:33N 51°42' E 002°05'9 8.6
2014-Jul-27 02:33N 51°50' E 002°10'9 8.6
2014-Jul-27 01:33N 51°58' E 002°11'10 9.7
2014-Jul-27 00:33N 52°08' E 002°08'1110.5
2014-Jul-26 23:33N 52°18' E 002°06'1211.5
2014-Jul-26 22:29N 52°30' E 002°03'1312.1
2014-Jul-26 21:24N 52°43' E 001°59'1011.8
2014-Jul-26 20:33N 52°52' E 001°51'1312.9
2014-Jul-26 19:33N 53°02' E 001°38'2512.3
2014-Jul-26 17:29N 53°23' E 001°13'1112.3
2014-Jul-26 16:34N 53°33' E 001°03'1212.0
2014-Jul-26 15:33N 53°42' E 000°50'1211.9
2014-Jul-26 14:33N 53°52' E 000°39'1111.3
2014-Jul-26 13:33N 54°01' E 000°28'1110.7
2014-Jul-26 12:33N 54°10' E 000°18'1010.1
2014-Jul-26 11:33N 54°18' E 000°08'10 9.8
2014-Jul-26 10:33N 54°26' W 000°01'10 9.6
2014-Jul-26 09:33N 54°35' W 000°11'10 9.7
2014-Jul-26 08:33N 54°43' W 000°20'1010.1
2014-Jul-26 07:33N 54°51' W 000°30'1110.9
2014-Jul-26 06:33N 54°60' W 000°40'1211.7
2014-Jul-26 05:32N 55°10' W 000°51'1111.3
2014-Jul-26 04:33N 55°19' W 001°03'1111.4
2014-Jul-26 03:33N 55°28' W 001°15'1211.9
2014-Jul-26 02:33N 55°37' W 001°28'5710.4
2014-Jul-25 21:04N 56°04' W 002°59'6 9.8
2014-Jul-25 20:28N 56°00' W 003°08'2 1.5
2014-Jul-25 19:07N 55°59' W 003°10'0 0.1
2014-Jul-25 18:22N 55°59' W 003°10'0 0.0
2014-Jul-25 17:28N 55°59' W 003°09'0 0.0
2014-Jul-25 16:25N 55°59' W 003°10'0 0.0
2014-Jul-25 15:28N 55°59' W 003°10'1 0.0
2014-Jul-24 05:33N 55°59' W 003°11'5 4.0
2014-Jul-24 04:24N 56°02' W 003°04'26 5.3
2014-Jul-23 23:32N 55°60' W 002°18'8 7.6
2014-Jul-23 22:32N 55°56' W 002°06'8 7.5
2014-Jul-23 21:32N 55°51' W 001°56'8 8.0
2014-Jul-23 20:32N 55°46' W 001°45'8 8.4
2014-Jul-23 19:33N 55°40' W 001°34'9 8.6
2014-Jul-23 18:32N 55°32' W 001°28'8 8.7
2014-Jul-23 17:33N 55°25' W 001°21'1211.6
2014-Jul-23 16:32N 55°16' W 001°07'1111.2
2014-Jul-23 15:32N 55°08' W 000°53'1111.2
2014-Jul-23 14:33N 54°60' W 000°41'1111.1
2014-Jul-23 13:33N 54°51' W 000°28'1111.0
2014-Jul-23 12:33N 54°43' W 000°15'1110.8
2014-Jul-23 11:33N 54°35' W 000°03'1111.2
2014-Jul-23 10:33N 54°27' E 000°10'1111.5
2014-Jul-23 09:33N 54°18' E 000°23'1211.8
2014-Jul-23 08:33N 54°09' E 000°36'1211.6
2014-Jul-23 07:33N 54°02' E 000°51'1211.6
2014-Jul-23 06:33N 53°56' E 001°08'1111.3
2014-Jul-23 05:33N 53°47' E 001°21'1110.6
2014-Jul-23 04:33N 53°39' E 001°33'10 9.9
2014-Jul-23 03:33N 53°32' E 001°44'1010.1
2014-Jul-23 02:33N 53°25' E 001°55'1110.7
2014-Jul-23 01:33N 53°16' E 002°07'1211.7
2014-Jul-23 00:33N 53°08' E 002°20'1211.6
2014-Jul-22 23:33N 52°57' E 002°25'1212.1
2014-Jul-22 22:33N 52°44' E 002°28'1211.7
2014-Jul-22 21:33N 52°33' E 002°30'1110.9
2014-Jul-22 20:33N 52°22' E 002°32'1010.2
2014-Jul-22 19:33N 52°12' E 002°34'14 9.8
2014-Jul-22 18:06N 51°59' E 002°42'910.5
2014-Jul-22 17:16N 51°54' E 002°54'710.1
2014-Jul-22 16:33N 51°49' E 003°02'1010.5
2014-Jul-22 15:33N 51°42' E 003°15'1110.5
2014-Jul-22 14:33N 51°33' E 003°25'1110.2
2014-Jul-22 13:31N 51°25' E 003°35'0 0.0
2014-Jul-22 12:31N 51°25' E 003°35'0 0.1
2014-Jul-22 11:31N 51°25' E 003°36'0 0.1
2014-Jul-22 10:31N 51°25' E 003°36'0 0.0
2014-Jul-22 09:28N 51°25' E 003°36'0 0.0
2014-Jul-22 08:31N 51°25' E 003°36'0 0.0
2014-Jul-22 07:31N 51°25' E 003°36'0 0.0
2014-Jul-22 06:31N 51°25' E 003°36'0 0.0
2014-Jul-22 05:31N 51°25' E 003°36'0 0.0
2014-Jul-22 04:31N 51°25' E 003°36'0 0.1
2014-Jul-22 03:31N 51°25' E 003°35'0 0.0
2014-Jul-22 02:31N 51°25' E 003°35'1 1.5
2014-Jul-22 01:34N 51°25' E 003°38'9 8.8
2014-Jul-22 00:34N 51°20' E 003°49'4 4.1
2014-Jul-21 23:34N 51°16' E 003°50'2 1.8
2014-Jul-21 22:33N 51°14' E 003°48'0 0.0
2014-Jul-21 21:32N 51°14' E 003°48'0 0.0
2014-Jul-21 20:34N 51°14' E 003°48'  

Dump ship's entire track history